IRIDIUM 33 DEB, 39778

Orbit data source: Space-Track

IRIDIUM 33 DEB, 39778 is space debris in LEO originally from a launch on Sun, 14 Sep 1997 UTC launched from the Tyuratam Missile And Space Complex (TTMTR). The debris from Iridium 33, an American commercial communications satellite, has been tracked extensively since its accidental collision with the defunct Russian satellite Cosmos 2251 in 2009. This event, occurring at high speed in low Earth orbit (LEO), generated thousands of pieces of space debris, significantly increasing the risk of further collisions. The Iridium 33 debris cloud has impacted space traffic management and orbital debris mitigation strategies, making it a subject of ongoing study in space situational awareness.

Loading next visibility...
IRIDIUM 33 DEB details
Identifier
39778, 1997-051AAK
Orbit
LEO
Last TLE update1 day ago
Origin
Flag of USIridium (US)
ManufacturerUnknown
MissionSpacecraft
Bus & MotorUnknown
MassUnknown
Launch date (UTC)
1997-09-14 (27 years ago)
Launch vehicleUnknown
Launch site
Tyuratam Missile And Space Complex (TTMTR)
Object type
Payload
Rocket body
Debris
Shape & HBRUnknown
Radar Cross SectionSmall (<0.1 m²)

Expand to show TLE details & history

TLE from 1 day ago
0 IRIDIUM 33 DEB
1 39778U 97051AAK 24360.31104081  .00008678  00000-0  22255-2 0  9996
2 39778  86.3819 195.6518 0009119 118.4391 241.7734 14.50192283555775
Epoch: 2024-12-25T07:27Z
Definitive object data (Epoch: 2024-12-25T07:27:53.925Z)
Latitude-0.00001°
Longitude-10.6295°
Altitude731.163 km
Speed7.488 km/s
True Right ascension13h 02m 36s
True Declination0° 00' 00"
Sunlit
Object was in daylight at TLE epoch
Visualization TLE readout
Latitude58.64614°
Longitude-5.18504°
Altitude731.336 km
Speed7.497 km/s
Apparent Right ascension18h 26m 30s
Apparent Declination24° 53' 58"
Sunlit
Object is in daylight
Visualization observer readout
Local Sidereal Time09:34:59
Azimuth42.754° NE
Elevation-11.726°
Doppler factor1
Orbital elements
Apogee altitude728.437 km
Perigee altitude715.488 km
Semi-major axis7,100.1 km
Eccentricity0.0009119
Inclination86.3819°
RAAN195.6518°
Arg. of periapsis118.4391°
True anomaly241.68138°
Mean anomaly241.7734°
Eccentric anomaly241.72738°
Mean motion3.62783 °/min
BSTAR0.0022255
Orbital period99.23 mins
Loading maneuver chart data...

IRIDIUM 33 DEB Visibility forecast

Observer location: undefined°, undefined

Span
Click to sort rows by Start time (UTC) header in descending order
Start Az.
Max El. time (UTC)
Max El. Az.
Max El.
End time (UTC)
End Az.
9 mins2024-12-26 13:22:50.355Z162.447° S2024-12-26 13:27:50.355Z68.414° E37.365°2024-12-26 13:31:50.355Z13.905° NNE
4 mins2024-12-26 15:05:50.355Z263.712° W2024-12-26 15:06:50.355Z277.371° WNW14.988°2024-12-26 15:09:50.355Z317.166° NNW
9 mins2024-12-27 01:25:50.355Z354.343° N2024-12-27 01:30:50.355Z222.731° SW43.6°2024-12-27 01:34:50.355Z184.485° SSW
|